East Quogue, NY

5:28 AM EST on February 21, 2017 (GMT -0500)
The Gabreski

Weather History for KFOK - December, 2011

Change the Weather History Date:

Saturday, December 10, 2011

  Actual Average Record
Temperature  
Mean Temperature 39 °F -  
Max Temperature 48 °F 44 °F 59 °F (2012)
Min Temperature 30 °F 27 °F 6 °F (2010)
Degree Days  
Heating Degree Days 26    
Moisture  
Dew Point 31 °F    
Average Humidity 69    
Maximum Humidity 93    
Minimum Humidity 40    
Precipitation  
Precipitation 0.09 in - - ()
Sea Level Pressure  
Sea Level Pressure 30.28 in    
Wind  
Wind Speed 7 mph (NNW)    
Max Wind Speed 17 mph    
Max Gust Speed 26 mph    
Visibility 9 miles    
Events Rain    
Averages and records for this station are not official NWS values.
T = Trace of Precipitation, MM = Missing Value Source: NWS Daily Summary

Daily Weather History Graph

Daily Weather History Graph

Search for Another Location

Airport or City:

Trip Planner

Search our weather history database for the weather conditions in past years. The results will help you decide how hot, cold, wet, or windy it might be!

Date:

Astronomy

Dec. 10, 2011 Rise Set
Actual Time 7:03 AM EST 4:22 PM EST
Civil Twilight 6:32 AM EST 4:53 PM EST
Nautical Twilight 5:58 AM EST 5:27 PM EST
Astronomical Twilight 5:25 AM EST 6:01 PM EST
Moon 4:33 PM EST (12/10) 7:01 AM EST (12/10)
Length of Visible Light 10h 20m
Length of Day
9h 18m
Full, 100% of the Moon is Illuminated
Dec 10
Full
Dec 17
Last Quarter
Dec 24
New
Jan 1
First Quarter
Jan 9
Full

Hourly Weather History & Observations

Time (EST) Temp. Windchill Dew Point Humidity Pressure Visibility Wind Dir Wind Speed Gust Speed Precip Events Conditions
12:53 AM 48.9 °F - 46.0 °F 90% 30.20 in 5.0 mi WNW 4.6 mph - 0.03 in Rain Light Rain
1:08 AM 48.2 °F - 44.6 °F 87% 30.20 in 7.0 mi NW 10.4 mph - 0.00 in Rain Light Rain
1:12 AM 46.4 °F 42.4 °F 44.6 °F 93% 30.20 in 5.0 mi NW 8.1 mph - 0.01 in Rain Light Rain
1:44 AM 46.4 °F 42.4 °F 44.6 °F 93% 30.20 in 4.0 mi NW 8.1 mph - 0.04 in Rain Light Rain
1:53 AM 46.0 °F 41.4 °F 44.1 °F 93% 30.21 in 5.0 mi NW 9.2 mph - 0.04 in Rain Light Rain
2:21 AM 46.4 °F 43.5 °F 42.8 °F 87% 30.19 in 6.0 mi NNW 5.8 mph - 0.02 in Rain Light Rain
3:53 AM 44.1 °F - 42.1 °F 93% 30.18 in 10.0 mi Calm Calm - 0.01 in Rain Light Rain
4:53 AM 44.1 °F - 41.0 °F 89% 30.18 in 9.0 mi Calm Calm - 0.00 in   Overcast
5:53 AM 42.1 °F - 39.9 °F 92% 30.19 in 7.0 mi Calm Calm - 0.00 in   Mostly Cloudy
6:53 AM 41.0 °F - 37.0 °F 86% 30.21 in 10.0 mi Calm Calm - N/A   Scattered Clouds
8:53 AM 42.1 °F 37.7 °F 36.0 °F 79% 30.25 in 10.0 mi NNW 6.9 mph - N/A   Clear
9:53 AM 43.0 °F 38.2 °F 33.1 °F 68% 30.27 in 10.0 mi North 8.1 mph - N/A   Clear
10:53 AM 45.0 °F 39.3 °F 33.1 °F 63% 30.27 in 10.0 mi NNW 11.5 mph 19.6 mph N/A   Clear
11:53 AM 45.0 °F 38.9 °F 30.9 °F 58% 30.27 in 10.0 mi NNW 12.7 mph - N/A   Partly Cloudy
12:53 PM 44.1 °F 38.1 °F 28.9 °F 55% 30.26 in 10.0 mi NNW 11.5 mph - N/A   Partly Cloudy
1:53 PM 43.0 °F 36.8 °F 28.9 °F 58% 30.26 in 10.0 mi NNW 11.5 mph - N/A   Mostly Cloudy
2:53 PM 42.1 °F 33.9 °F 23.0 °F 47% 30.27 in 10.0 mi NW 17.3 mph 26.5 mph 0.01 in   Partly Cloudy
3:53 PM 39.9 °F 33.4 °F 24.1 °F 53% 30.29 in 10.0 mi NNW 10.4 mph - N/A   Partly Cloudy
5:53 PM 37.0 °F 31.6 °F 19.9 °F 50% 30.34 in 10.0 mi North 6.9 mph - N/A   Clear
6:53 PM 34.0 °F 28.0 °F 19.0 °F 54% 30.38 in 10.0 mi North 6.9 mph - N/A   Clear
7:53 PM 33.1 °F 27.7 °F 17.1 °F 52% 30.42 in 10.0 mi NNW 5.8 mph - N/A   Clear
8:53 PM 33.1 °F 27.7 °F 16.0 °F 50% 30.45 in 10.0 mi NNW 5.8 mph - N/A   Clear
9:53 PM 30.9 °F 24.3 °F 15.1 °F 52% 30.45 in 10.0 mi NNW 6.9 mph - N/A   Clear
10:53 PM 32.0 °F 24.2 °F 10.0 °F 40% 30.48 in 10.0 mi NNW 9.2 mph - N/A   Clear
11:53 PM 30.9 °F 23.5 °F 10.0 °F 42% 30.49 in 10.0 mi NNW 8.1 mph - N/A   Clear